EA4LT-13 Weather Reports


Display with metric or nautical units.
time (UTC)temp
F
wind
direction
speed
MPH
gust
MPH
rain 1hr
in
rain 24hr
in
rain mn
in
humidity
%
barometer
mb
20260504150141 62 270 6.0 15.0 0.00 0.00 0.00 52 1012.4
20260504140143 62 292 11.0 15.0 0.00 0.00 0.00 52 1013.1
20260504130141 60 292 7.0 11.0 0.00 0.00 0.00 56 1013.1
20260504120142 60 292 7.0 13.0 0.00 0.00 0.00 56 1013.3
20260504110141 61 315 4.0 15.0 0.00 0.00 0.00 52 1013.4
20260504100142 59 292 6.0 11.0 0.00 0.00 0.00 57 1013.5
20260504090140 58 315 4.0 12.0 0.00 0.00 0.00 61 1013.2
20260504081641 55 292 7.0 12.0 0.00 0.00 0.00 69 1012.8
20260504080140 54 292 6.0 11.0 0.00 0.00 0.00 71 1012.7
20260504070139 51 270 8.0 15.0 0.00 0.00 0.00 82 1012.2
20260504060139 48 292 6.0 9.0 0.00 0.00 0.00 90 1011.9
20260504050140 48 315 6.0 11.0 0.00 0.00 0.00 88 1011.5
20260504044640 48 292 6.0 10.0 0.00 0.00 0.00 88 1011.4
20260504043139 48 292 5.0 11.0 0.00 0.00 0.00 87 1011.7
20260504041640 49 292 6.0 11.0 0.00 0.00 0.00 85 1011.5
20260504040139 49 315 5.0 9.0 0.00 0.00 0.00 85 1011.5
20260504034638 48 315 2.0 4.0 0.00 0.00 0.00 89 1011.8
20260504033140 48 292 0.0 6.0 0.00 0.00 0.00 89 1011.7
20260504031639 49 315 3.0 6.0 0.00 0.00 0.00 86 1011.7
20260504030139 50 315 5.0 9.0 0.00 0.00 0.00 85 1011.5
20260504024638 50 270 4.0 9.0 0.00 0.00 0.00 87 1011.7
20260504023139 50 292 5.0 11.0 0.00 0.00 0.00 88 1011.7
20260504021639 50 270 5.0 10.0 0.00 0.00 0.00 89 1011.7
20260504020139 50 292 3.0 9.0 0.00 0.00 0.00 89 1011.5
20260504014638 51 292 3.0 6.0 0.00 0.00 0.00 89 1011.9
20260504013139 51 270 1.0 3.0 0.00 0.00 0.00 88 1012.0
20260504011638 51 270 3.0 6.0 0.00 0.00 0.00 88 1012.1
20260504010138 51 292 3.0 8.0 0.00 0.00 0.00 89 1012.2
20260504004638 51 292 3.0 6.0 0.00 0.00 0.00 90 1012.1
20260504003138 51 270 3.0 6.0 0.00 0.00 0.00 90 1012.3
20260504001637 51 292 3.0 8.0 0.00 0.00 0.00 90 1012.4
20260504000138 51 292 4.0 11.0 0.00 0.00 0.00 90 1012.1
20260503234639 51 292 6.0 12.0 0.00 0.00 0.00 89 1011.9
20260503233138 51 292 6.0 11.0 0.00 0.00 0.00 89 1012.1
20260503231637 51 315 7.0 12.0 0.00 0.00 0.00 89 1012.0
20260503230137 51 270 4.0 8.0 0.00 0.00 0.00 93 1012.4
20260503224638 52 270 1.0 4.0 0.00 0.00 0.00 91 1012.3
20260503223137 53 315 4.0 12.0 0.00 0.00 0.00 89 1012.2
20260503221638 53 338 4.0 9.0 0.00 0.00 0.00 89 1012.4
20260503220138 53 315 6.0 10.0 0.00 0.00 0.00 89 1012.2
20260503214636 54 315 6.0 9.0 0.00 0.00 0.00 88 1012.4
20260503213137 54 292 6.0 10.0 0.00 0.00 0.00 86 1012.1
20260503211638 55 292 5.0 8.0 0.00 0.00 0.00 86 1012.2
20260503210138 55 292 5.0 8.0 0.00 0.00 0.00 86 1012.0
20260503204637 55 292 4.0 11.0 0.00 0.00 0.00 86 1011.9
20260503203137 55 315 6.0 10.0 0.00 0.00 0.00 86 1011.5
20260503201637 55 315 4.0 9.0 0.00 0.00 0.00 85 1011.6
20260503200136 56 292 4.0 9.0 0.00 0.00 0.00 84 1011.5
20260503194637 57 315 6.0 11.0 0.00 0.00 0.00 82 1011.1
20260503193138 57 292 6.0 11.0 0.00 0.00 0.00 81 1011.1
20260503191636 57 292 6.0 11.0 0.00 0.00 0.00 81 1010.9
20260503190136 58 315 7.0 12.0 0.00 0.00 0.00 83 1010.8
20260503184636 58 338 6.0 15.0 0.00 0.00 0.00 82 1010.6
20260503183136 58 292 9.0 15.0 0.00 0.00 0.00 84 1010.7
20260503181637 58 315 9.0 17.0 0.00 0.00 0.00 84 1010.7
20260503180135 61 315 11.0 20.0 0.00 0.00 0.00 72 1010.7
20260503174636 63 292 6.0 12.0 0.00 0.00 0.00 58 1010.8
20260503173137 65 292 5.0 11.0 0.00 0.00 0.00 55 1010.3
20260503171635 66 180 3.0 11.0 0.00 0.00 0.00 52 1010.3
20260503170137 67 225 2.0 8.0 0.00 0.00 0.00 51 1010.6
20260503160136 65 292 5.0 9.0 0.00 0.00 0.00 54 1010.5